Regional Weather Roundup
Issued by NWS

Home | Current Version | Previous Version | Text Only | Print | Product List | Glossary On
Versions: 1 2 3 4 5 6 7 8 9 10 11 12 13 14 15 16 17 18 19 20 21 22 23 24 25 26 27 28 29 30 31 32 33 34 35 36 37 38 39 40 41 42 43 44 45 46 47 48 49 50
000
ASUS43 KMPX 191910
RWRMN
WEATHER ROUNDUP FOR MINNESOTA
NATIONAL WEATHER SERVICE TWIN CITIES/CHANHASSEN MN
200 PM CDT TUE SEP 19 2017


NOTE: "FAIR" INDICATES FEW OR NO CLOUDS BELOW 12,000 FEET WITH NO
SIGNIFICANT WEATHER AND/OR OBSTRUCTIONS TO VISIBILITY. N/A MEANS
CURRENT SKY AND/OR WEATHER CONDITIONS ARE NOT AVAILABLE.

MNZ060>063-068>070-192000-
   Twin Cities Metro

CITY           SKY/WX    TMP DP  RH WIND       PRES   REMARKS
TWIN CITIES    PTSUNNY   77  64  64 SE16      29.82F
ST PAUL        MOSUNNY   76  65  68 SE14      29.83F
CRYSTAL        PTSUNNY   75  61  61 SE14G21   29.80F
BLAINE         PTSUNNY   77  64  65 SE14G23   29.82F
LAKEVILLE      PTSUNNY   77  63  61 SE10G20   29.82F
EDEN PRAIRIE   PTSUNNY   78  64  61 SE14G23   29.80F
SOUTH ST PAUL  SUNNY     77  63  60 SE10G17   29.82F
LAKE ELMO      FAIR      77  64  65 SE15      29.85F
$$
MNZ001>005-007-008-013>017-022>024-027-028-192000-
   Northwest Minnesota

CITY           SKY/WX    TMP DP  RH WIND       PRES   REMARKS
BEMIDJI        CLOUDY    66  60  82 SE15G23   29.76F
HALLOCK        CLOUDY    73  63  68 SE18G24   29.61F
ROSEAU         MOSUNNY   70  61  73 SE15G22   29.71F
WARROAD        CLOUDY    66  61  82 E16       29.74F
THIEF RVR FALL MOSUNNY   74  60  61 SE23G33   29.67F
CROOKSTON      CLOUDY    75  61  60 S22       29.62F
FOSSTON        SUNNY     73  61  64 SE14G25   29.69F
DETROIT LAKES  CLOUDY    72  61  68 SE22G30   29.70F
MOORHEAD       CLOUDY    75  63  64 SE17G31   29.62F
PARK RAPIDS    CLOUDY    72  61  68 SE22      29.75F
MAHNOMEN       FAIR      72  61  67 SE17G28   29.67F
$$
MNZ006-009>011-018-025>026-192000-
   North Central Minnesota

CITY           SKY/WX    TMP DP  RH WIND       PRES   REMARKS
BAUDETTE       CLOUDY    67  60  78 SE16      29.76F
FLAG ISLAND    MOSUNNY   61  55  82 SE6       29.76F
INTL FALLS     CLOUDY    67  58  72 SE13      29.82F
WASKISH        PTSUNNY   70  61  73 SE9G20    29.76F
BIG FORK       SUNNY     70  59  68 SE9G18    29.82F
LONGVILLE      CLOUDY    66  61  82 SE13G24   29.80F
GRAND RAPIDS   CLOUDY    67  60  78 SE13G20   29.84F
CRANE LAKE     CLOUDY    68  59  73 SE8       29.87F
ORR            MOSUNNY   70  57  64 SE8G16    29.82F
COOK           CLOUDY    68  59  73 SE9       29.86F
WALKER         CLOUDY    65  60  83 SE9       29.77F
$$
MNZ012-019>021-037-192000-
   Northeast Minnesota

CITY           SKY/WX    TMP DP  RH WIND       PRES   REMARKS
DULUTH         MOSUNNY   66  59  78 SE14      29.89F
ELY            MOSUNNY   70  57  64 S14       29.89F
HIBBING        MOSUNNY   66  59  78 SE10      29.85F
EVELETH        MOSUNNY   68  61  79 SE14      29.88F
DULUTH HARBOR  MOSUNNY   64  59  82 NE17      29.90F
TWO HARBORS    SUNNY     70  61  73 E12       29.89F
GRAND MARAIS     N/A     61  56  83 E12       29.96F
G MARAIS ARPRT   N/A     63  48  59 E8        29.98F
$$
MNZ029>031-032-039>041-046>048-054>057-064-192000-
   West Central Minnesota

CITY           SKY/WX    TMP DP  RH WIND       PRES   REMARKS
FERGUS FALLS   CLOUDY    72  63  73 SE23G29   29.67F
WHEATON        PTSUNNY   73  63  68 SE24G33   29.64F
MORRIS         CLOUDY    72  64  78 SE23G33   29.67F
ALEXANDRIA     CLOUDY    72  64  76 SE17G29   29.74F
ELBOW LAKE     CLOUDY    69  64  83 E20G30    29.69F HAZE
WADENA         CLOUDY    70  61  73 SE17G24   29.74F
GLENWOOD       CLOUDY    72  64  78 SE20G28   29.74F
APPLETON       CLOUDY    73  64  73 SE18G25   29.68F
BENSON         CLOUDY    72  64  78 S17G26    29.72F
ORTONVILLE     CLOUDY    72  64  78 NE15G26   29.65F
MADISON        CLOUDY    75  66  73 SE16G26   29.67F
WILLMAR        PTSUNNY   73  64  73 SE18G24   29.75F
$$
MNZ033>034-036-042>043-049>051-058-059-192000-
   Central Minnesota

CITY           SKY/WX    TMP DP  RH WIND       PRES   REMARKS
ST CLOUD       PTSUNNY   77  64  64 SE18      29.78F
PAYNESVILLE    PTSUNNY   72  64  74 SE9G20    29.77F
AITKIN         MOSUNNY   72  61  68 SE12G18   29.80F
PINE RIVER     CLOUDY    64  59  82 SE12G18   29.82F
BRAINERD       PTSUNNY   72  62  71 S15G22    29.80F
STAPLES        PTSUNNY   70  61  73 SE12G23   29.76F
LONG PRAIRIE   PTSUNNY   70  61  73 E16G23    29.77F
LITTLE FALLS   CLOUDY    72  55  56 SE17G23   29.78F
LITCHFIELD     MOSUNNY   75  66  73 SE16G25   29.78F
BUFFALO        PTSUNNY   76  62  62 SE14G21   29.80F
MAPLE LAKE     MOSUNNY   77  66  68 SE12G20   29.80F
HUTCHINSON     CLOUDY    75  66  74 SE17      29.79F
$$
MNZ037-044-045-052-053-192000-
   East Central Minnesota

CITY           SKY/WX    TMP DP  RH WIND       PRES   REMARKS
PRINCETON      MOSUNNY   75  64  69 E13G21    29.81F
MORA           PTSUNNY   70  59  68 SE14G20   29.84F
CAMBRIDGE      MOSUNNY   77  63  61 SE13G18   29.82F
RUSH CITY      PTSUNNY   73  62  66 SE13G18   29.84F
MOOSE LAKE     MOSUNNY   72  61  68 SE5       29.83F
HINCKLEY       MOCLDY    72  63  73 SE10G20   29.84F
CLOQUET        SUNNY     68  57  68 E9G17     29.86F
MCGREGOR       PTSUNNY   73  63  68 SE12G22   29.83F
$$
MNZ071>073-080-081-089-090-097-098-192000-
   Southwest Minnesota

CITY           SKY/WX    TMP DP  RH WIND       PRES   REMARKS
MONTEVIDEO     CLOUDY    73  64  73 S17G25    29.70F
GRANITE FALLS  CLOUDY    74  65  74 SE16G25   29.73F
CANBY          CLOUDY    75  67  75 SE22      29.68F
MARSHALL       CLOUDY    73  66  78 SE24      29.70F
REDWOOD FALLS  CLOUDY    73  63  70 SE18G28   29.74F
OLIVIA         CLOUDY    73  64  73 SE15G24   29.74F
PIPESTONE      CLOUDY    73  66  78 S16G23    29.69F
WORTHINGTON    PTSUNNY   74  67  78 SE20G25   29.73F
JACKSON        PTSUNNY   73  64  73 SE18G25   29.77F
TRACY          CLOUDY    73  67  84 SE20G25   29.73F
SLAYTON        CLOUDY    71  65  80 SE17G26   29.75F
$$
MNZ065>067-074>077-082>085-091>093-192000-
   South Central Minnesota

CITY           SKY/WX    TMP DP  RH WIND       PRES   REMARKS
MANKATO        MOSUNNY   76  65  68 S18G24    29.79F
NEW ULM        CLOUDY    73  64  73 SE15G25   29.76F
ST JAMES       MOSUNNY   77  64  65 SE18G25   29.77F
FAIRMONT       PTSUNNY   75  66  73 S20G30    29.78F
GLENCOE        MOSUNNY   77  67  71 SE16G23   29.78F
FARIBAULT      PTSUNNY   77  63  61 SE15G24   29.83F
OWATONNA       MOSUNNY   79  63  57 SE18G26   29.83F
WASECA         MOSUNNY   77  63  61 SE21G26   29.83F
ALBERT LEA     SUNNY     81  64  57 SE20      29.83F
$$
MNZ078>079-086>088-094>096-192000-
   Southeast Minnesota

CITY           SKY/WX    TMP DP  RH WIND       PRES   REMARKS
ROCHESTER      SUNNY     76  62  62 S15G24    29.88F
RED WING       SUNNY     79  61  53 SE13G18   29.84F
STANTON        MOSUNNY   78  63  60 SE13      29.82F
DODGE CENTER   SUNNY     75  59  57 SE14G22   29.86F
WINONA         SUNNY     77  63  61 SE9       29.89F
AUSTIN         MOSUNNY   75  63  64 S13G18    29.86F
PRESTON        SUNNY     75  60  60 SE13      29.90F
$$
ABBREVIATIONS USED IN REMARKS
   TC - TEMPERATURES IN CELSIUS
  WCI - WIND CHILL INDEX
   HX - HEAT INDEX
  VSB - VISIBILITY
$$




USA.gov is the U.S. government's official web portal to all federal, state and local government web resources and services.